User: anonymous   Login
Location: Banska Bystrica
(0.0000°N, 19.1500°E)
Time: 20:21:48
(UTC+01:00)
Language:

YAOGAN 1 - Orbit

View from above orbital plane
View from above orbital plane
View from above satellite
View from above satellite

Ground track
Ground track

The orbit data is extracted from the following two-line orbital elements,

1 29092U 06015A   19324.21562706  .00000045  00000-0  12074-4 0  9999
2 29092  97.9594 344.6597 0001442  92.9352 267.2027 14.83025748733670
Epoch (UTC): 20 November 2019 05:10:30
Eccentricity: 0.0001442
inclination: 97.9594°
perigee height: 619 km
apogee height: 621 km
right ascension of ascending node: 344.6597°
argument of perigee: 92.9352°
revolutions per day: 14.83025748
mean anomaly at epoch: 267.2027°
orbit number at epoch: 73367

The dashed part of the orbit path shows where the satellite is in the earth's shadow,  

DLR